Time,TemperatureF,DewpointF,PressureIn,WindDirection,WindDirectionDegrees,WindSpeedMPH,WindSpeedGustMPH,Humidity,HourlyPrecipIn,Conditions,Clouds,dailyrainin,SoftwareType,DateUTC
2013-02-12 00:01:00,-10.0,-13.0,-100.00,NW,315,0.0,1.0,88,0.00,,,-99.99,,2013-02-12 07:01:00,
2013-02-12 00:11:00,-10.0,-13.0,-100.00,NW,315,0.0,0.0,88,0.00,,,-99.99,,2013-02-12 07:11:00,
2013-02-12 00:21:00,-10.0,-13.0,-100.00,NW,315,0.0,1.0,88,0.00,,,-99.99,,2013-02-12 07:21:00,
2013-02-12 00:32:00,-9.0,-12.0,-100.00,NW,315,0.0,1.0,88,0.00,,,-99.99,,2013-02-12 07:32:00,
2013-02-12 00:42:00,-8.0,-11.0,-100.00,NW,315,0.0,0.0,88,0.00,,,-99.99,,2013-02-12 07:42:00,
2013-02-12 00:51:00,-7.0,-10.0,-100.00,NW,315,1.0,2.0,88,0.00,,,-99.99,,2013-02-12 07:51:00,
2013-02-12 01:01:00,-7.0,-9.0,-100.00,NW,315,0.0,1.0,88,0.00,,,-99.99,,2013-02-12 08:01:00,
2013-02-12 01:11:00,-7.0,-10.0,-100.00,NW,315,1.0,1.0,88,0.00,,,-99.99,,2013-02-12 08:11:00,
2013-02-12 01:21:00,-9.0,-11.0,-100.00,NW,315,2.0,4.0,88,0.00,,,-99.99,,2013-02-12 08:21:00,
2013-02-12 01:32:00,-10.0,-12.0,-100.00,NW,315,0.0,4.0,88,0.00,,,-99.99,,2013-02-12 08:32:00,
2013-02-12 01:41:00,-10.0,-12.0,-100.00,NW,315,2.0,3.0,88,0.00,,,-99.99,,2013-02-12 08:41:00,
2013-02-12 01:52:00,-10.0,-12.0,-100.00,NW,315,0.0,2.0,88,0.00,,,-99.99,,2013-02-12 08:52:00,
2013-02-12 02:01:00,-10.0,-13.0,-100.00,NW,315,2.0,3.0,88,0.00,,,-99.99,,2013-02-12 09:01:00,
2013-02-12 02:11:00,-11.0,-14.0,-100.00,NW,315,1.0,2.0,88,0.00,,,-99.99,,2013-02-12 09:11:00,
2013-02-12 02:21:00,-12.0,-14.0,-100.00,NW,315,2.0,2.0,88,0.00,,,-99.99,,2013-02-12 09:21:00,
2013-02-12 02:32:00,-13.0,-15.0,-100.00,NW,315,2.0,3.0,88,0.00,,,-99.99,,2013-02-12 09:32:00,
2013-02-12 02:42:00,-13.0,-15.0,-100.00,NW,315,1.0,4.0,88,0.00,,,-99.99,,2013-02-12 09:42:00,
2013-02-12 02:51:00,-12.0,-15.0,-100.00,NW,315,2.0,4.0,88,0.00,,,-99.99,,2013-02-12 09:51:00,
2013-02-12 03:01:00,-12.0,-14.0,-100.00,NW,315,2.0,4.0,88,0.00,,,-99.99,,2013-02-12 10:01:00,
2013-02-12 03:11:00,-12.0,-14.0,-100.00,NW,315,1.0,4.0,88,0.00,,,-99.99,,2013-02-12 10:11:00,
2013-02-12 03:21:00,-11.0,-14.0,-100.00,NW,315,0.0,2.0,88,0.00,,,-99.99,,2013-02-12 10:21:00,
2013-02-12 03:32:00,-10.0,-13.0,-100.00,NW,315,0.0,1.0,88,0.00,,,-99.99,,2013-02-12 10:32:00,
2013-02-12 03:43:00,-10.0,-12.0,-100.00,NW,315,0.0,1.0,88,0.00,,,-99.99,,2013-02-12 10:43:00,
2013-02-12 03:51:00,-10.0,-12.0,-100.00,NW,315,0.0,1.0,88,0.00,,,-99.99,,2013-02-12 10:51:00,
2013-02-12 04:01:00,-10.0,-13.0,-100.00,NW,315,2.0,3.0,88,0.00,,,-99.99,,2013-02-12 11:01:00,
2013-02-12 04:11:00,-10.0,-13.0,-100.00,NW,315,0.0,1.0,88,0.00,,,-99.99,,2013-02-12 11:11:00,
2013-02-12 04:22:00,-9.0,-12.0,-100.00,NW,315,1.0,2.0,88,0.00,,,-99.99,,2013-02-12 11:22:00,
2013-02-12 04:32:00,-9.0,-12.0,-100.00,NW,315,1.0,1.0,88,0.00,,,-99.99,,2013-02-12 11:32:00,
2013-02-12 04:42:00,-9.0,-11.0,-100.00,NW,315,0.0,1.0,88,0.00,,,-99.99,,2013-02-12 11:42:00,
2013-02-12 04:52:00,-8.0,-11.0,-100.00,NW,315,0.0,0.0,88,0.00,,,-99.99,,2013-02-12 11:52:00,
2013-02-12 05:01:00,-7.0,-10.0,-100.00,NW,315,1.0,1.0,88,0.00,,,-99.99,,2013-02-12 12:01:00,
2013-02-12 05:11:00,-7.0,-10.0,-100.00,NW,315,1.0,2.0,88,0.00,,,-99.99,,2013-02-12 12:11:00,
2013-02-12 05:21:00,-6.0,-8.0,-100.00,NW,315,3.0,4.0,88,0.00,,,-99.99,,2013-02-12 12:21:00,
2013-02-12 05:32:00,-5.0,-7.0,-100.00,NW,315,2.0,4.0,89,0.00,,,-99.99,,2013-02-12 12:32:00,
2013-02-12 05:42:00,-4.0,-7.0,-100.00,NW,315,2.0,3.0,89,0.00,,,-99.99,,2013-02-12 12:42:00,
2013-02-12 05:52:00,-4.0,-7.0,-100.00,NW,315,0.0,2.0,89,0.00,,,-99.99,,2013-02-12 12:52:00,
2013-02-12 06:01:00,-4.0,-7.0,-100.00,NW,315,0.0,1.0,89,0.00,,,-99.99,,2013-02-12 13:01:00,
2013-02-12 06:11:00,-6.0,-8.0,-100.00,NW,315,0.0,0.0,89,0.00,,,-99.99,,2013-02-12 13:11:00,
2013-02-12 06:22:00,-7.0,-10.0,-100.00,NW,315,0.0,2.0,89,0.00,,,-99.99,,2013-02-12 13:22:00,
2013-02-12 06:32:00,-9.0,-11.0,-100.00,NW,315,0.0,1.0,89,0.00,,,-99.99,,2013-02-12 13:32:00,
2013-02-12 06:42:00,-10.0,-12.0,-100.00,NW,315,1.0,2.0,89,0.00,,,-99.99,,2013-02-12 13:42:00,
2013-02-12 06:51:00,-11.0,-13.0,-100.00,NW,315,0.0,2.0,89,0.00,,,-99.99,,2013-02-12 13:51:00,
2013-02-12 07:01:00,-12.0,-14.0,-100.00,NW,315,0.0,1.0,89,0.00,,,-99.99,,2013-02-12 14:01:00,
2013-02-12 07:12:00,-12.0,-14.0,-100.00,NW,315,0.0,1.0,89,0.00,,,-99.99,,2013-02-12 14:12:00,
2013-02-12 07:21:00,-12.0,-14.0,-100.00,NW,315,1.0,1.0,89,0.00,,,-99.99,,2013-02-12 14:21:00,
2013-02-12 07:32:00,-13.0,-15.0,-100.00,NW,315,1.0,2.0,89,0.00,,,-99.99,,2013-02-12 14:32:00,
2013-02-12 07:42:00,-13.0,-16.0,-100.00,NW,315,0.0,2.0,89,0.00,,,-99.99,,2013-02-12 14:42:00,
2013-02-12 07:52:00,-13.0,-15.0,-100.00,NW,315,0.0,1.0,89,0.00,,,-99.99,,2013-02-12 14:52:00,
2013-02-12 08:02:00,-13.0,-15.0,-100.00,NW,315,0.0,0.0,89,0.00,,,-99.99,,2013-02-12 15:02:00,
2013-02-12 08:11:00,-12.0,-14.0,-100.00,NW,315,2.0,3.0,89,0.00,,,-99.99,,2013-02-12 15:11:00,
2013-02-12 08:21:00,-12.0,-14.0,-100.00,NW,315,0.0,2.0,89,0.00,,,-99.99,,2013-02-12 15:21:00,
2013-02-12 08:32:00,-7.0,-10.0,-100.00,NW,315,1.0,2.0,89,0.00,,,-99.99,,2013-02-12 15:32:00,
2013-02-12 08:42:00,-1.0,-3.0,-100.00,NW,315,0.0,1.0,89,0.00,,,-99.99,,2013-02-12 15:42:00,
2013-02-12 08:52:00,2.0,-1.0,-100.00,NW,320,0.0,0.0,89,0.00,,,-99.99,,2013-02-12 15:52:00,
2013-02-12 09:01:00,4.0,2.0,-100.00,NW,320,0.0,1.0,89,0.00,,,-99.99,,2013-02-12 16:01:00,
2013-02-12 09:11:00,8.0,5.0,-100.00,NW,320,0.0,0.0,89,0.00,,,-99.99,,2013-02-12 16:11:00,
2013-02-12 09:22:00,8.0,6.0,-100.00,NW,320,2.0,4.0,89,0.00,,,-99.99,,2013-02-12 16:22:00,
2013-02-12 09:32:00,9.0,6.0,-100.00,NW,315,4.0,6.0,88,0.00,,,-99.99,,2013-02-12 16:32:00,
2013-02-12 09:42:00,9.0,5.0,-100.00,WNW,295,6.0,7.0,84,0.00,,,-99.99,,2013-02-12 16:42:00,
2013-02-12 09:51:00,10.0,4.0,-100.00,West,275,7.0,10.0,77,0.00,,,-99.99,,2013-02-12 16:51:00,
2013-02-12 10:01:00,10.0,3.0,-100.00,WSW,245,7.0,9.0,71,0.00,,,-99.99,,2013-02-12 17:01:00,
2013-02-12 10:12:00,11.0,2.0,-100.00,SW,230,6.0,9.0,66,0.00,,,-99.99,,2013-02-12 17:12:00,
2013-02-12 10:21:00,11.0,1.0,-100.00,SW,215,5.0,10.0,62,0.00,,,-99.99,,2013-02-12 17:21:00,
2013-02-12 10:32:00,12.0,1.0,-100.00,SSW,200,7.0,9.0,59,0.00,,,-99.99,,2013-02-12 17:32:00,
2013-02-12 10:42:00,12.0,0.0,-100.00,South,185,9.0,12.0,56,0.00,,,-99.99,,2013-02-12 17:42:00,
2013-02-12 10:52:00,13.0,-1.0,-100.00,South,175,10.0,12.0,54,0.00,,,-99.99,,2013-02-12 17:52:00,
2013-02-12 11:01:00,12.0,-1.0,-100.00,South,170,9.0,14.0,52,0.00,,,-99.99,,2013-02-12 18:01:00,
2013-02-12 11:11:00,13.0,-2.0,-100.00,SSE,165,8.0,13.0,50,0.00,,,-99.99,,2013-02-12 18:11:00,
2013-02-12 11:23:00,14.0,-1.0,-100.00,SSE,160,8.0,11.0,49,0.00,,,-99.99,,2013-02-12 18:23:00,
2013-02-12 11:32:00,15.0,-2.0,-100.00,SE,140,6.0,10.0,45,0.00,,,-99.99,,2013-02-12 18:32:00,
2013-02-12 11:41:00,15.0,-2.0,-100.00,SE,140,8.0,11.0,45,0.00,,,-99.99,,2013-02-12 18:41:00,
2013-02-12 11:51:00,16.0,-2.0,-100.00,SE,140,7.0,11.0,45,0.00,,,-99.99,,2013-02-12 18:51:00,
2013-02-12 12:02:00,16.0,-2.0,-100.00,SE,140,11.0,12.0,44,0.00,,,-99.99,,2013-02-12 19:02:00,
2013-02-12 12:11:00,17.0,-1.0,-100.00,SE,140,9.0,12.0,44,0.00,,,-99.99,,2013-02-12 19:11:00,
2013-02-12 12:21:00,17.0,-1.0,-100.00,SE,140,9.0,12.0,44,0.00,,,-99.99,,2013-02-12 19:21:00,
2013-02-12 12:31:00,17.0,-1.0,-100.00,SE,140,9.0,12.0,44,0.00,,,-99.99,,2013-02-12 19:31:00,
2013-02-12 12:41:00,18.0,0.0,-100.00,SE,140,9.0,12.0,44,0.00,,,-99.99,,2013-02-12 19:41:00,
2013-02-12 12:51:00,17.0,0.0,-100.00,SE,140,9.0,13.0,45,0.00,,,-99.99,,2013-02-12 19:51:00,
2013-02-12 13:01:00,18.0,0.0,-100.00,SE,140,9.0,12.0,45,0.00,,,-99.99,,2013-02-12 20:01:00,
2013-02-12 13:11:00,18.0,1.0,-100.00,SE,140,9.0,12.0,45,0.00,,,-99.99,,2013-02-12 20:11:00,
2013-02-12 13:21:00,19.0,1.0,-100.00,SE,140,9.0,13.0,44,0.00,,,-99.99,,2013-02-12 20:21:00,
2013-02-12 13:32:00,18.0,0.0,-100.00,SE,140,11.0,13.0,44,0.00,,,-99.99,,2013-02-12 20:32:00,
2013-02-12 13:41:00,18.0,1.0,-100.00,SE,140,9.0,12.0,45,0.00,,,-99.99,,2013-02-12 20:41:00,
2013-02-12 13:52:00,19.0,1.0,-100.00,SE,140,9.0,13.0,45,0.00,,,-99.99,,2013-02-12 20:52:00,
2013-02-12 14:01:00,19.0,2.0,-100.00,SE,140,9.0,14.0,45,0.00,,,-99.99,,2013-02-12 21:01:00,
2013-02-12 14:11:00,19.0,2.0,-100.00,SE,145,10.0,14.0,46,0.00,,,-99.99,,2013-02-12 21:11:00,
2013-02-12 14:21:00,19.0,2.0,-100.00,SE,145,10.0,14.0,46,0.00,,,-99.99,,2013-02-12 21:21:00,
2013-02-12 14:31:00,19.0,2.0,-100.00,SE,145,10.0,13.0,45,0.00,,,-99.99,,2013-02-12 21:31:00,
2013-02-12 14:42:00,19.0,2.0,-100.00,SE,145,11.0,15.0,46,0.00,,,-99.99,,2013-02-12 21:42:00,
2013-02-12 14:51:00,19.0,2.0,-100.00,SE,145,9.0,13.0,45,0.00,,,-99.99,,2013-02-12 21:51:00,
2013-02-12 15:01:00,19.0,2.0,-100.00,SE,145,10.0,16.0,46,0.00,,,-99.99,,2013-02-12 22:01:00,
2013-02-12 15:12:00,18.0,1.0,-100.00,SSE,150,11.0,17.0,47,0.00,,,-99.99,,2013-02-12 22:12:00,
2013-02-12 15:21:00,18.0,1.0,-100.00,SSE,150,11.0,12.0,47,0.00,,,-99.99,,2013-02-12 22:21:00,
2013-02-12 15:32:00,18.0,1.0,-100.00,SSE,150,8.0,13.0,47,0.00,,,-99.99,,2013-02-12 22:32:00,
2013-02-12 15:42:00,18.0,1.0,-100.00,SE,145,9.0,12.0,46,0.00,,,-99.99,,2013-02-12 22:42:00,
2013-02-12 15:51:00,18.0,1.0,-100.00,SSE,150,9.0,12.0,47,0.00,,,-99.99,,2013-02-12 22:51:00,
2013-02-12 16:01:00,17.0,0.0,-100.00,SSE,150,10.0,14.0,47,0.00,,,-99.99,,2013-02-12 23:01:00,
2013-02-12 16:11:00,16.0,0.0,-100.00,SSE,155,9.0,12.0,48,0.00,,,-99.99,,2013-02-12 23:11:00,
2013-02-12 16:21:00,16.0,1.0,-100.00,SSE,160,7.0,12.0,49,0.00,,,-99.99,,2013-02-12 23:21:00,
2013-02-12 16:32:00,16.0,0.0,-100.00,SSE,155,7.0,9.0,49,0.00,,,-99.99,,2013-02-12 23:32:00,
2013-02-12 16:42:00,15.0,-1.0,-100.00,SSE,155,6.0,9.0,49,0.00,,,-99.99,,2013-02-12 23:42:00,
2013-02-12 16:52:00,14.0,-1.0,-100.00,SSE,160,5.0,8.0,50,0.00,,,-99.99,,2013-02-12 23:52:00,
2013-02-12 17:02:00,12.0,-3.0,-100.00,SSE,165,5.0,7.0,51,0.00,,,-99.99,,2013-02-13 00:02:00,
2013-02-12 17:11:00,10.0,-3.0,-100.00,South,170,6.0,8.0,53,0.00,,,-99.99,,2013-02-13 00:11:00,
2013-02-12 17:21:00,8.0,-4.0,-100.00,South,185,6.0,7.0,56,0.00,,,-99.99,,2013-02-13 00:21:00,
2013-02-12 17:32:00,7.0,-4.0,-100.00,SSW,195,4.0,7.0,59,0.00,,,-99.99,,2013-02-13 00:32:00,
2013-02-12 17:42:00,7.0,-4.0,-100.00,SSW,205,4.0,4.0,61,0.00,,,-99.99,,2013-02-13 00:42:00,
2013-02-12 17:52:00,6.0,-4.0,-100.00,SSW,210,6.0,6.0,62,0.00,,,-99.99,,2013-02-13 00:52:00,
2013-02-12 18:01:00,5.0,-4.0,-100.00,SW,220,6.0,6.0,64,0.00,,,-99.99,,2013-02-13 01:01:00,
2013-02-12 18:11:00,4.0,-5.0,-100.00,SW,225,4.0,6.0,66,0.00,,,-99.99,,2013-02-13 01:11:00,
2013-02-12 18:21:00,4.0,-4.0,-100.00,SW,230,5.0,7.0,67,0.00,,,-99.99,,2013-02-13 01:21:00,
2013-02-12 18:31:00,4.0,-4.0,-100.00,WSW,240,4.0,6.0,69,0.00,,,-99.99,,2013-02-13 01:31:00,
2013-02-12 18:42:00,3.0,-4.0,-100.00,WSW,245,6.0,7.0,71,0.00,,,-99.99,,2013-02-13 01:42:00,
2013-02-12 18:51:00,2.0,-4.0,-100.00,WSW,250,5.0,6.0,72,0.00,,,-99.99,,2013-02-13 01:51:00,
2013-02-12 19:01:00,2.0,-3.0,-100.00,West,260,5.0,6.0,75,0.00,,,-99.99,,2013-02-13 02:01:00,
2013-02-12 19:11:00,2.0,-4.0,-100.00,West,265,4.0,6.0,76,0.00,,,-99.99,,2013-02-13 02:11:00,
2013-02-12 19:22:00,1.0,-4.0,-100.00,West,275,6.0,6.0,78,0.00,,,-99.99,,2013-02-13 02:22:00,
2013-02-12 19:31:00,0.0,-5.0,-100.00,West,280,7.0,8.0,79,0.00,,,-99.99,,2013-02-13 02:31:00,
2013-02-12 19:41:00,0.0,-4.0,-100.00,West,280,7.0,8.0,80,0.00,,,-99.99,,2013-02-13 02:41:00,
2013-02-12 19:52:00,0.0,-4.0,-100.00,WNW,285,6.0,7.0,81,0.00,,,-99.99,,2013-02-13 02:52:00,
2013-02-12 20:01:00,1.0,-4.0,-100.00,WNW,290,6.0,6.0,82,0.00,,,-99.99,,2013-02-13 03:01:00,
2013-02-12 20:11:00,1.0,-3.0,-100.00,WNW,290,4.0,7.0,83,0.00,,,-99.99,,2013-02-13 03:11:00,
2013-02-12 20:21:00,1.0,-3.0,-100.00,WNW,295,0.0,4.0,84,0.00,,,-99.99,,2013-02-13 03:21:00,
2013-02-12 20:32:00,0.0,-3.0,-100.00,WNW,295,1.0,1.0,84,0.00,,,-99.99,,2013-02-13 03:32:00,
2013-02-12 20:42:00,0.0,-4.0,-100.00,WNW,300,0.0,2.0,84,0.00,,,-99.99,,2013-02-13 03:42:00,
2013-02-12 20:51:00,-1.0,-4.0,-100.00,WNW,300,0.0,1.0,85,0.00,,,-99.99,,2013-02-13 03:51:00,
2013-02-12 21:01:00,-1.0,-4.0,-100.00,NW,305,0.0,1.0,86,0.00,,,-99.99,,2013-02-13 04:01:00,
2013-02-12 21:11:00,0.0,-3.0,-100.00,NW,305,0.0,1.0,86,0.00,,,-99.99,,2013-02-13 04:11:00,
2013-02-12 21:21:00,1.0,-2.0,-100.00,NW,310,1.0,1.0,87,0.00,,,-99.99,,2013-02-13 04:21:00,
2013-02-12 21:32:00,2.0,-1.0,-100.00,NW,310,0.0,1.0,87,0.00,,,-99.99,,2013-02-13 04:32:00,
2013-02-12 21:41:00,2.0,-1.0,-100.00,NW,310,3.0,4.0,87,0.00,,,-99.99,,2013-02-13 04:41:00,
2013-02-12 21:51:00,2.0,0.0,-100.00,NW,315,5.0,6.0,88,0.00,,,-99.99,,2013-02-13 04:51:00,
2013-02-12 22:01:00,2.0,0.0,-100.00,NW,315,4.0,6.0,88,0.00,,,-99.99,,2013-02-13 05:01:00,
2013-02-12 22:11:00,2.0,0.0,-100.00,NW,315,4.0,6.0,89,0.00,,,-99.99,,2013-02-13 05:11:00,
2013-02-12 22:22:00,3.0,1.0,-100.00,NW,315,4.0,6.0,89,0.00,,,-99.99,,2013-02-13 05:22:00,
2013-02-12 22:31:00,4.0,1.0,-100.00,NW,320,4.0,6.0,89,0.00,,,-99.99,,2013-02-13 05:31:00,
2013-02-12 22:42:00,4.0,1.0,-100.00,NW,320,4.0,7.0,89,0.00,,,-99.99,,2013-02-13 05:42:00,
2013-02-12 22:52:00,4.0,1.0,-100.00,NW,320,2.0,6.0,89,0.00,,,-99.99,,2013-02-13 05:52:00,
2013-02-12 23:02:00,4.0,2.0,-100.00,NW,320,4.0,4.0,90,0.00,,,-99.99,,2013-02-13 06:02:00,
2013-02-12 23:11:00,5.0,2.0,-100.00,NW,320,4.0,6.0,91,0.00,,,-99.99,,2013-02-13 06:11:00,
2013-02-12 23:21:00,5.0,3.0,-100.00,NW,325,4.0,7.0,91,0.00,,,-99.99,,2013-02-13 06:21:00,
2013-02-12 23:32:00,5.0,3.0,-100.00,NW,325,6.0,7.0,91,0.00,,,-99.99,,2013-02-13 06:32:00,
2013-02-12 23:42:00,5.0,3.0,-100.00,NW,325,4.0,8.0,91,0.00,,,-99.99,,2013-02-13 06:42:00,
2013-02-12 23:51:00,6.0,4.0,-100.00,NNW,330,4.0,7.0,92,0.00,,,-99.99,,2013-02-13 06:51:00,